owner,sensor,date,latitude,longitude,vertical_datum,sea_water_practical_salinity,qcFlag 
LUMCON,ioos:station:LUMCON:101:1,2016-03-01T00:00:00Z,29.2533,-90.6633,1.11,4.32,1111122 
LUMCON,ioos:station:LUMCON:101:1,2016-03-01T00:15:00Z,29.2533,-90.6633,1.1,4.3,1111122 
LUMCON,ioos:station:LUMCON:101:1,2016-03-01T00:30:00Z,29.2533,-90.6633,1.1,4.31,1111122 
LUMCON,ioos:station:LUMCON:101:1,2016-03-01T00:45:00Z,29.2533,-90.6633,1.09,4.3,1111122 
LUMCON,ioos:station:LUMCON:101:1,2016-03-01T01:00:00Z,29.2533,-90.6633,1.08,4.31,1111122 
LUMCON,ioos:station:LUMCON:101:1,2016-03-01T01:15:00Z,29.2533,-90.6633,1.07,4.29,1111122 
LUMCON,ioos:station:LUMCON:101:1,2016-03-01T01:30:00Z,29.2533,-90.6633,1.07,4.26,1111122 
LUMCON,ioos:station:LUMCON:101:1,2016-03-01T01:45:00Z,29.2533,-90.6633,1.06,4.24,1111122 
LUMCON,ioos:station:LUMCON:101:1,2016-03-01T02:00:00Z,29.2533,-90.6633,1.05,4.2,1111122 
LUMCON,ioos:station:LUMCON:101:1,2016-03-01T02:15:00Z,29.2533,-90.6633,1.04,4.18,1111122 
LUMCON,ioos:station:LUMCON:101:1,2016-03-01T02:30:00Z,29.2533,-90.6633,1.04,4.17,1111122 
LUMCON,ioos:station:LUMCON:101:1,2016-03-01T02:45:00Z,29.2533,-90.6633,1.02,4.1,1111122 
LUMCON,ioos:station:LUMCON:101:1,2016-03-01T03:00:00Z,29.2533,-90.6633,1.02,4.03,1111122 
LUMCON,ioos:station:LUMCON:101:1,2016-03-01T03:15:00Z,29.2533,-90.6633,1.01,3.97,1111122 
LUMCON,ioos:station:LUMCON:101:1,2016-03-01T03:30:00Z,29.2533,-90.6633,1.0,3.9,1111122 
LUMCON,ioos:station:LUMCON:101:1,2016-03-01T03:45:00Z,29.2533,-90.6633,0.99,3.83,1111122 
LUMCON,ioos:station:LUMCON:101:1,2016-03-01T04:00:00Z,29.2533,-90.6633,0.99,3.79,1111122 
LUMCON,ioos:station:LUMCON:101:1,2016-03-01T04:15:00Z,29.2533,-90.6633,0.98,3.77,1111122 
LUMCON,ioos:station:LUMCON:101:1,2016-03-01T04:30:00Z,29.2533,-90.6633,0.97,3.74,1111122 
LUMCON,ioos:station:LUMCON:101:1,2016-03-01T04:45:00Z,29.2533,-90.6633,0.96,3.77,1111122 
LUMCON,ioos:station:LUMCON:101:1,2016-03-01T05:00:00Z,29.2533,-90.6633,0.96,3.77,1111122 
LUMCON,ioos:station:LUMCON:101:1,2016-03-01T05:15:00Z,29.2533,-90.6633,0.96,3.79,1111122 
LUMCON,ioos:station:LUMCON:101:1,2016-03-01T05:30:00Z,29.2533,-90.6633,0.96,3.77,1111122 
LUMCON,ioos:station:LUMCON:101:1,2016-03-01T05:45:00Z,29.2533,-90.6633,0.96,3.77,1111122 
LUMCON,ioos:station:LUMCON:101:1,2016-03-01T06:00:00Z,29.2533,-90.6633,0.95,3.77,1111122 
LUMCON,ioos:station:LUMCON:101:1,2016-03-01T06:15:00Z,29.2533,-90.6633,0.95,3.76,1111122 
LUMCON,ioos:station:LUMCON:101:1,2016-03-01T06:30:00Z,29.2533,-90.6633,0.94,3.78,1111122 
LUMCON,ioos:station:LUMCON:101:1,2016-03-01T06:45:00Z,29.2533,-90.6633,0.94,3.78,1111122 
LUMCON,ioos:station:LUMCON:101:1,2016-03-01T07:00:00Z,29.2533,-90.6633,0.95,3.76,1111122 
LUMCON,ioos:station:LUMCON:101:1,2016-03-01T07:15:00Z,29.2533,-90.6633,0.94,3.78,1111122 
LUMCON,ioos:station:LUMCON:101:1,2016-03-01T07:30:00Z,29.2533,-90.6633,0.95,3.76,1111122 
LUMCON,ioos:station:LUMCON:101:1,2016-03-01T07:45:00Z,29.2533,-90.6633,0.95,3.76,1111122 
LUMCON,ioos:station:LUMCON:101:1,2016-03-01T08:00:00Z,29.2533,-90.6633,0.95,3.76,1111122 
LUMCON,ioos:station:LUMCON:101:1,2016-03-01T08:15:00Z,29.2533,-90.6633,0.95,3.76,1111122 
LUMCON,ioos:station:LUMCON:101:1,2016-03-01T08:30:00Z,29.2533,-90.6633,0.96,3.77,1111122 
LUMCON,ioos:station:LUMCON:101:1,2016-03-01T08:45:00Z,29.2533,-90.6633,0.96,3.73,1111122 
LUMCON,ioos:station:LUMCON:101:1,2016-03-01T09:00:00Z,29.2533,-90.6633,0.97,3.79,1111122 
LUMCON,ioos:station:LUMCON:101:1,2016-03-01T09:15:00Z,29.2533,-90.6633,0.98,3.82,1111122 
LUMCON,ioos:station:LUMCON:101:1,2016-03-01T09:30:00Z,29.2533,-90.6633,0.98,3.86,1111122 
LUMCON,ioos:station:LUMCON:101:1,2016-03-01T09:45:00Z,29.2533,-90.6633,0.99,3.79,1111122 
LUMCON,ioos:station:LUMCON:101:1,2016-03-01T10:00:00Z,29.2533,-90.6633,1.0,3.75,1111122 
LUMCON,ioos:station:LUMCON:101:1,2016-03-01T10:15:00Z,29.2533,-90.6633,1.0,3.76,1111122 
LUMCON,ioos:station:LUMCON:101:1,2016-03-01T10:30:00Z,29.2533,-90.6633,1.01,3.73,1111122 
LUMCON,ioos:station:LUMCON:101:1,2016-03-01T10:45:00Z,29.2533,-90.6633,1.03,3.71,1111122 
LUMCON,ioos:station:LUMCON:101:1,2016-03-01T11:00:00Z,29.2533,-90.6633,1.04,3.71,1111122 
LUMCON,ioos:station:LUMCON:101:1,2016-03-01T11:15:00Z,29.2533,-90.6633,1.05,3.73,1111122 
LUMCON,ioos:station:LUMCON:101:1,2016-03-01T11:30:00Z,29.2533,-90.6633,1.05,3.83,1111122 
LUMCON,ioos:station:LUMCON:101:1,2016-03-01T11:45:00Z,29.2533,-90.6633,1.06,3.97,1111122 
LUMCON,ioos:station:LUMCON:101:1,2016-03-01T12:00:00Z,29.2533,-90.6633,1.07,4.07,1111122 
LUMCON,ioos:station:LUMCON:101:1,2016-03-01T12:15:00Z,29.2533,-90.6633,1.08,4.19,1111122 
LUMCON,ioos:station:LUMCON:101:1,2016-03-01T12:30:00Z,29.2533,-90.6633,1.1,4.19,1111122 
LUMCON,ioos:station:LUMCON:101:1,2016-03-01T12:45:00Z,29.2533,-90.6633,1.1,4.21,1111122 
LUMCON,ioos:station:LUMCON:101:1,2016-03-01T13:00:00Z,29.2533,-90.6633,1.11,4.26,1111122 
LUMCON,ioos:station:LUMCON:101:1,2016-03-01T13:15:00Z,29.2533,-90.6633,1.12,4.29,1111122 
LUMCON,ioos:station:LUMCON:101:1,2016-03-01T13:30:00Z,29.2533,-90.6633,1.12,4.3,1111122 
LUMCON,ioos:station:LUMCON:101:1,2016-03-01T13:45:00Z,29.2533,-90.6633,1.12,4.35,1111122 
LUMCON,ioos:station:LUMCON:101:1,2016-03-01T14:00:00Z,29.2533,-90.6633,1.13,4.35,1111122 
LUMCON,ioos:station:LUMCON:101:1,2016-03-01T14:15:00Z,29.2533,-90.6633,1.14,4.37,1111122 
LUMCON,ioos:station:LUMCON:101:1,2016-03-01T14:30:00Z,29.2533,-90.6633,1.15,4.4,1111122 
LUMCON,ioos:station:LUMCON:101:1,2016-03-01T14:45:00Z,29.2533,-90.6633,1.16,4.4,1111122 
LUMCON,ioos:station:LUMCON:101:1,2016-03-01T15:00:00Z,29.2533,-90.6633,1.17,4.38,1111122 
LUMCON,ioos:station:LUMCON:101:1,2016-03-01T15:15:00Z,29.2533,-90.6633,1.18,4.46,1111122 
LUMCON,ioos:station:LUMCON:101:1,2016-03-01T15:30:00Z,29.2533,-90.6633,1.18,4.45,1111122 
LUMCON,ioos:station:LUMCON:101:1,2016-03-01T15:45:00Z,29.2533,-90.6633,1.19,4.45,1111122 
LUMCON,ioos:station:LUMCON:101:1,2016-03-01T16:00:00Z,29.2533,-90.6633,1.19,4.45,1111122 
LUMCON,ioos:station:LUMCON:101:1,2016-03-01T16:15:00Z,29.2533,-90.6633,1.2,4.44,1111122 
LUMCON,ioos:station:LUMCON:101:1,2016-03-01T16:30:00Z,29.2533,-90.6633,1.21,4.49,1111122 
LUMCON,ioos:station:LUMCON:101:1,2016-03-01T16:45:00Z,29.2533,-90.6633,1.22,4.48,1111122 
LUMCON,ioos:station:LUMCON:101:1,2016-03-01T17:00:00Z,29.2533,-90.6633,1.23,4.55,1111122 
LUMCON,ioos:station:LUMCON:101:1,2016-03-01T17:15:00Z,29.2533,-90.6633,1.23,4.56,1111122 
LUMCON,ioos:station:LUMCON:101:1,2016-03-01T17:30:00Z,29.2533,-90.6633,1.23,4.54,1111122 
LUMCON,ioos:station:LUMCON:101:1,2016-03-01T17:45:00Z,29.2533,-90.6633,1.24,4.57,1111122 
LUMCON,ioos:station:LUMCON:101:1,2016-03-01T18:00:00Z,29.2533,-90.6633,1.24,4.57,1111122 
LUMCON,ioos:station:LUMCON:101:1,2016-03-01T18:15:00Z,29.2533,-90.6633,1.24,4.57,1111122 
LUMCON,ioos:station:LUMCON:101:1,2016-03-01T18:30:00Z,29.2533,-90.6633,1.25,4.61,1111122 
LUMCON,ioos:station:LUMCON:101:1,2016-03-01T18:45:00Z,29.2533,-90.6633,1.26,4.58,1111122 
LUMCON,ioos:station:LUMCON:101:1,2016-03-01T19:00:00Z,29.2533,-90.6633,1.27,4.58,1111122 
LUMCON,ioos:station:LUMCON:101:1,2016-03-01T19:15:00Z,29.2533,-90.6633,1.27,4.61,1111122 
LUMCON,ioos:station:LUMCON:101:1,2016-03-01T19:30:00Z,29.2533,-90.6633,1.28,4.59,1111122 
LUMCON,ioos:station:LUMCON:101:1,2016-03-01T19:45:00Z,29.2533,-90.6633,1.27,4.58,1111122 
LUMCON,ioos:station:LUMCON:101:1,2016-03-01T20:00:00Z,29.2533,-90.6633,1.27,4.58,1111122 
LUMCON,ioos:station:LUMCON:101:1,2016-03-01T20:15:00Z,29.2533,-90.6633,1.28,4.59,1111122 
LUMCON,ioos:station:LUMCON:101:1,2016-03-01T20:30:00Z,29.2533,-90.6633,1.27,4.58,1111122 
LUMCON,ioos:station:LUMCON:101:1,2016-03-01T20:45:00Z,29.2533,-90.6633,1.28,4.59,1111122 
LUMCON,ioos:station:LUMCON:101:1,2016-03-01T21:00:00Z,29.2533,-90.6633,1.28,4.56,1111122 
LUMCON,ioos:station:LUMCON:101:1,2016-03-01T21:15:00Z,29.2533,-90.6633,1.29,4.55,1111122 
LUMCON,ioos:station:LUMCON:101:1,2016-03-01T21:30:00Z,29.2533,-90.6633,1.29,4.55,1111122 
LUMCON,ioos:station:LUMCON:101:1,2016-03-01T21:45:00Z,29.2533,-90.6633,1.28,4.54,1111122 
LUMCON,ioos:station:LUMCON:101:1,2016-03-01T22:00:00Z,29.2533,-90.6633,1.29,4.54,1111122 
LUMCON,ioos:station:LUMCON:101:1,2016-03-01T22:15:00Z,29.2533,-90.6633,1.28,4.56,1111122 
LUMCON,ioos:station:LUMCON:101:1,2016-03-01T22:30:00Z,29.2533,-90.6633,1.26,4.57,1111122 
LUMCON,ioos:station:LUMCON:101:1,2016-03-01T22:45:00Z,29.2533,-90.6633,1.26,4.57,1111122 
LUMCON,ioos:station:LUMCON:101:1,2016-03-01T23:00:00Z,29.2533,-90.6633,1.25,4.59,1111122 
LUMCON,ioos:station:LUMCON:101:1,2016-03-01T23:15:00Z,29.2533,-90.6633,1.25,4.6,1111122 
LUMCON,ioos:station:LUMCON:101:1,2016-03-01T23:30:00Z,29.2533,-90.6633,1.25,4.63,1111122 
LUMCON,ioos:station:LUMCON:101:1,2016-03-01T23:45:00Z,29.2533,-90.6633,1.25,4.61,1111122 
LUMCON,ioos:station:LUMCON:101:1,2016-03-02T00:00:00Z,29.2533,-90.6633,1.24,4.64,1111122 
LUMCON,ioos:station:LUMCON:101:1,2016-03-02T00:15:00Z,29.2533,-90.6633,1.24,4.67,1111122 
LUMCON,ioos:station:LUMCON:101:1,2016-03-02T00:30:00Z,29.2533,-90.6633,1.22,4.63,1111122 
LUMCON,ioos:station:LUMCON:101:1,2016-03-02T00:45:00Z,29.2533,-90.6633,1.22,4.64,1111122 
LUMCON,ioos:station:LUMCON:101:1,2016-03-02T01:00:00Z,29.2533,-90.6633,1.21,4.64,1111122 
LUMCON,ioos:station:LUMCON:101:1,2016-03-02T01:15:00Z,29.2533,-90.6633,1.19,4.62,1111122 
LUMCON,ioos:station:LUMCON:101:1,2016-03-02T01:30:00Z,29.2533,-90.6633,1.19,4.63,1111122 
LUMCON,ioos:station:LUMCON:101:1,2016-03-02T01:45:00Z,29.2533,-90.6633,1.19,4.59,1111122 
LUMCON,ioos:station:LUMCON:101:1,2016-03-02T02:00:00Z,29.2533,-90.6633,1.17,4.57,1111122 
LUMCON,ioos:station:LUMCON:101:1,2016-03-02T02:15:00Z,29.2533,-90.6633,1.16,4.55,1111122 
LUMCON,ioos:station:LUMCON:101:1,2016-03-02T02:30:00Z,29.2533,-90.6633,1.14,4.51,1111122 
LUMCON,ioos:station:LUMCON:101:1,2016-03-02T02:45:00Z,29.2533,-90.6633,1.12,4.47,1111122 
LUMCON,ioos:station:LUMCON:101:1,2016-03-02T03:00:00Z,29.2533,-90.6633,1.12,4.42,1111122 
LUMCON,ioos:station:LUMCON:101:1,2016-03-02T03:15:00Z,29.2533,-90.6633,1.11,4.37,1111122 
LUMCON,ioos:station:LUMCON:101:1,2016-03-02T03:30:00Z,29.2533,-90.6633,1.1,4.33,1111122 
LUMCON,ioos:station:LUMCON:101:1,2016-03-02T03:45:00Z,29.2533,-90.6633,1.09,4.33,1111122 
LUMCON,ioos:station:LUMCON:101:1,2016-03-02T04:00:00Z,29.2533,-90.6633,1.08,4.38,1111122 
LUMCON,ioos:station:LUMCON:101:1,2016-03-02T04:15:00Z,29.2533,-90.6633,1.06,4.3,1111122 
LUMCON,ioos:station:LUMCON:101:1,2016-03-02T04:30:00Z,29.2533,-90.6633,1.05,4.28,1111122 
LUMCON,ioos:station:LUMCON:101:1,2016-03-02T04:45:00Z,29.2533,-90.6633,1.05,4.26,1111122 
LUMCON,ioos:station:LUMCON:101:1,2016-03-02T05:00:00Z,29.2533,-90.6633,1.04,4.22,1111122 
LUMCON,ioos:station:LUMCON:101:1,2016-03-02T05:15:00Z,29.2533,-90.6633,1.04,4.26,1111122 
LUMCON,ioos:station:LUMCON:101:1,2016-03-02T05:30:00Z,29.2533,-90.6633,1.02,4.16,1111122 
LUMCON,ioos:station:LUMCON:101:1,2016-03-02T05:45:00Z,29.2533,-90.6633,1.0,4.22,1111122 
LUMCON,ioos:station:LUMCON:101:1,2016-03-02T06:00:00Z,29.2533,-90.6633,0.99,4.18,1111122 
LUMCON,ioos:station:LUMCON:101:1,2016-03-02T06:15:00Z,29.2533,-90.6633,0.98,4.17,1111122 
LUMCON,ioos:station:LUMCON:101:1,2016-03-02T06:30:00Z,29.2533,-90.6633,0.97,4.16,1111122 
LUMCON,ioos:station:LUMCON:101:1,2016-03-02T06:45:00Z,29.2533,-90.6633,0.95,4.14,1111122 
LUMCON,ioos:station:LUMCON:101:1,2016-03-02T07:00:00Z,29.2533,-90.6633,0.94,4.11,1111122 
LUMCON,ioos:station:LUMCON:101:1,2016-03-02T07:15:00Z,29.2533,-90.6633,0.93,4.15,1111122 
LUMCON,ioos:station:LUMCON:101:1,2016-03-02T07:30:00Z,29.2533,-90.6633,0.92,4.13,1111122 
LUMCON,ioos:station:LUMCON:101:1,2016-03-02T07:45:00Z,29.2533,-90.6633,0.91,4.1,1111122 
LUMCON,ioos:station:LUMCON:101:1,2016-03-02T08:00:00Z,29.2533,-90.6633,0.89,4.13,1111122 
LUMCON,ioos:station:LUMCON:101:1,2016-03-02T08:15:00Z,29.2533,-90.6633,0.88,4.12,1111122 
LUMCON,ioos:station:LUMCON:101:1,2016-03-02T08:30:00Z,29.2533,-90.6633,0.88,4.13,1111122 
LUMCON,ioos:station:LUMCON:101:1,2016-03-02T08:45:00Z,29.2533,-90.6633,0.87,4.13,1111122 
LUMCON,ioos:station:LUMCON:101:1,2016-03-02T09:00:00Z,29.2533,-90.6633,0.87,4.13,1111122 
LUMCON,ioos:station:LUMCON:101:1,2016-03-02T09:15:00Z,29.2533,-90.6633,0.86,4.14,1111122 
LUMCON,ioos:station:LUMCON:101:1,2016-03-02T09:30:00Z,29.2533,-90.6633,0.87,4.14,1111122 
LUMCON,ioos:station:LUMCON:101:1,2016-03-02T09:45:00Z,29.2533,-90.6633,0.86,4.15,1111122 
LUMCON,ioos:station:LUMCON:101:1,2016-03-02T10:00:00Z,29.2533,-90.6633,0.86,4.12,1111122 
LUMCON,ioos:station:LUMCON:101:1,2016-03-02T10:15:00Z,29.2533,-90.6633,0.85,4.13,1111122 
LUMCON,ioos:station:LUMCON:101:1,2016-03-02T10:30:00Z,29.2533,-90.6633,0.84,4.12,1111122 
LUMCON,ioos:station:LUMCON:101:1,2016-03-02T10:45:00Z,29.2533,-90.6633,0.84,4.14,1111122 
LUMCON,ioos:station:LUMCON:101:1,2016-03-02T11:00:00Z,29.2533,-90.6633,0.82,4.15,1111122 
LUMCON,ioos:station:LUMCON:101:1,2016-03-02T11:15:00Z,29.2533,-90.6633,0.82,4.16,1111122 
LUMCON,ioos:station:LUMCON:101:1,2016-03-02T11:30:00Z,29.2533,-90.6633,0.81,4.16,1111122 
LUMCON,ioos:station:LUMCON:101:1,2016-03-02T11:45:00Z,29.2533,-90.6633,0.81,4.16,1111122 
LUMCON,ioos:station:LUMCON:101:1,2016-03-02T12:00:00Z,29.2533,-90.6633,0.81,4.17,1111122 
LUMCON,ioos:station:LUMCON:101:1,2016-03-02T12:15:00Z,29.2533,-90.6633,0.81,4.17,1111122 
LUMCON,ioos:station:LUMCON:101:1,2016-03-02T12:30:00Z,29.2533,-90.6633,0.82,4.19,1111122 
LUMCON,ioos:station:LUMCON:101:1,2016-03-02T12:45:00Z,29.2533,-90.6633,0.83,4.15,1111122 
LUMCON,ioos:station:LUMCON:101:1,2016-03-02T13:00:00Z,29.2533,-90.6633,0.84,4.16,1111122 
LUMCON,ioos:station:LUMCON:101:1,2016-03-02T13:15:00Z,29.2533,-90.6633,0.88,4.16,1111122 
LUMCON,ioos:station:LUMCON:101:1,2016-03-02T13:30:00Z,29.2533,-90.6633,0.9,4.16,1111122 
LUMCON,ioos:station:LUMCON:101:1,2016-03-02T13:45:00Z,29.2533,-90.6633,0.92,4.17,1111122 
LUMCON,ioos:station:LUMCON:101:1,2016-03-02T14:00:00Z,29.2533,-90.6633,0.94,4.15,1111122 
LUMCON,ioos:station:LUMCON:101:1,2016-03-02T14:15:00Z,29.2533,-90.6633,0.95,3.99,1111122 
LUMCON,ioos:station:LUMCON:101:1,2016-03-02T14:30:00Z,29.2533,-90.6633,0.97,3.81,1111122 
LUMCON,ioos:station:LUMCON:101:1,2016-03-02T14:45:00Z,29.2533,-90.6633,0.98,3.52,1111122 
LUMCON,ioos:station:LUMCON:101:1,2016-03-02T15:00:00Z,29.2533,-90.6633,0.99,3.45,1111122 
LUMCON,ioos:station:LUMCON:101:1,2016-03-02T15:15:00Z,29.2533,-90.6633,1.0,3.41,1111122 
LUMCON,ioos:station:LUMCON:101:1,2016-03-02T15:30:00Z,29.2533,-90.6633,1.01,3.59,1111122 
LUMCON,ioos:station:LUMCON:101:1,2016-03-02T15:45:00Z,29.2533,-90.6633,1.02,3.91,1111122 
LUMCON,ioos:station:LUMCON:101:1,2016-03-02T16:00:00Z,29.2533,-90.6633,1.01,3.97,1111122 
LUMCON,ioos:station:LUMCON:101:1,2016-03-02T16:15:00Z,29.2533,-90.6633,1.02,3.93,1111122 
LUMCON,ioos:station:LUMCON:101:1,2016-03-02T16:30:00Z,29.2533,-90.6633,1.03,3.91,1111122 
LUMCON,ioos:station:LUMCON:101:1,2016-03-02T16:45:00Z,29.2533,-90.6633,1.04,3.9,1111122 
LUMCON,ioos:station:LUMCON:101:1,2016-03-02T17:00:00Z,29.2533,-90.6633,1.05,3.91,1111122 
LUMCON,ioos:station:LUMCON:101:1,2016-03-02T17:15:00Z,29.2533,-90.6633,1.07,3.9,1111122 
LUMCON,ioos:station:LUMCON:101:1,2016-03-02T17:30:00Z,29.2533,-90.6633,1.08,3.84,1111122 
LUMCON,ioos:station:LUMCON:101:1,2016-03-02T17:45:00Z,29.2533,-90.6633,1.09,3.84,1111122 
LUMCON,ioos:station:LUMCON:101:1,2016-03-02T18:00:00Z,29.2533,-90.6633,1.11,3.93,1111122 
LUMCON,ioos:station:LUMCON:101:1,2016-03-02T18:15:00Z,29.2533,-90.6633,1.12,4.01,1111122 
LUMCON,ioos:station:LUMCON:101:1,2016-03-02T18:30:00Z,29.2533,-90.6633,1.13,4.03,1111122 
LUMCON,ioos:station:LUMCON:101:1,2016-03-02T18:45:00Z,29.2533,-90.6633,1.14,4.14,1111122 
LUMCON,ioos:station:LUMCON:101:1,2016-03-02T19:00:00Z,29.2533,-90.6633,1.16,4.24,1111122 
LUMCON,ioos:station:LUMCON:101:1,2016-03-02T19:15:00Z,29.2533,-90.6633,1.17,4.25,1111122 
LUMCON,ioos:station:LUMCON:101:1,2016-03-02T19:30:00Z,29.2533,-90.6633,1.18,4.28,1111122 
LUMCON,ioos:station:LUMCON:101:1,2016-03-02T19:45:00Z,29.2533,-90.6633,1.19,4.31,1111122 
LUMCON,ioos:station:LUMCON:101:1,2016-03-02T20:00:00Z,29.2533,-90.6633,1.19,4.34,1111122 
LUMCON,ioos:station:LUMCON:101:1,2016-03-02T20:15:00Z,29.2533,-90.6633,1.2,4.39,1111122 
LUMCON,ioos:station:LUMCON:101:1,2016-03-02T20:30:00Z,29.2533,-90.6633,1.21,4.44,1111122 
LUMCON,ioos:station:LUMCON:101:1,2016-03-02T20:45:00Z,29.2533,-90.6633,1.21,4.45,1111122 
LUMCON,ioos:station:LUMCON:101:1,2016-03-02T21:00:00Z,29.2533,-90.6633,1.22,4.49,1111122 
LUMCON,ioos:station:LUMCON:101:1,2016-03-02T21:15:00Z,29.2533,-90.6633,1.22,4.61,1111122 
LUMCON,ioos:station:LUMCON:101:1,2016-03-02T21:30:00Z,29.2533,-90.6633,1.23,4.71,1111122 
LUMCON,ioos:station:LUMCON:101:1,2016-03-02T21:45:00Z,29.2533,-90.6633,1.23,4.88,1111122 
LUMCON,ioos:station:LUMCON:101:1,2016-03-02T22:00:00Z,29.2533,-90.6633,1.23,5.03,1111122 
LUMCON,ioos:station:LUMCON:101:1,2016-03-02T22:15:00Z,29.2533,-90.6633,1.24,5.17,1111122 
LUMCON,ioos:station:LUMCON:101:1,2016-03-02T22:30:00Z,29.2533,-90.6633,1.25,5.28,1111122 
LUMCON,ioos:station:LUMCON:101:1,2016-03-02T22:45:00Z,29.2533,-90.6633,1.25,5.45,1111122 
LUMCON,ioos:station:LUMCON:101:1,2016-03-02T23:00:00Z,29.2533,-90.6633,1.26,5.55,1111122 
LUMCON,ioos:station:LUMCON:101:1,2016-03-02T23:15:00Z,29.2533,-90.6633,1.26,5.67,1111122 
LUMCON,ioos:station:LUMCON:101:1,2016-03-02T23:30:00Z,29.2533,-90.6633,1.26,5.69,1111122 
LUMCON,ioos:station:LUMCON:101:1,2016-03-02T23:45:00Z,29.2533,-90.6633,1.26,5.64,1111122 
LUMCON,ioos:station:LUMCON:101:1,2016-03-03T00:00:00Z,29.2533,-90.6633,1.26,5.83,1111122 
LUMCON,ioos:station:LUMCON:101:1,2016-03-03T00:15:00Z,29.2533,-90.6633,1.26,6.33,1111122 
LUMCON,ioos:station:LUMCON:101:1,2016-03-03T00:30:00Z,29.2533,-90.6633,1.26,6.59,1111122 
LUMCON,ioos:station:LUMCON:101:1,2016-03-03T00:45:00Z,29.2533,-90.6633,1.25,6.89,1111122 
LUMCON,ioos:station:LUMCON:101:1,2016-03-03T01:00:00Z,29.2533,-90.6633,1.26,7.09,1111122 
LUMCON,ioos:station:LUMCON:101:1,2016-03-03T01:15:00Z,29.2533,-90.6633,1.26,7.11,1111122 
LUMCON,ioos:station:LUMCON:101:1,2016-03-03T01:30:00Z,29.2533,-90.6633,1.26,7.14,1111122 
LUMCON,ioos:station:LUMCON:101:1,2016-03-03T01:45:00Z,29.2533,-90.6633,1.26,7.18,1111122 
LUMCON,ioos:station:LUMCON:101:1,2016-03-03T02:00:00Z,29.2533,-90.6633,1.26,7.2,1111122 
LUMCON,ioos:station:LUMCON:101:1,2016-03-03T02:15:00Z,29.2533,-90.6633,1.26,7.43,1111122 
LUMCON,ioos:station:LUMCON:101:1,2016-03-03T02:30:00Z,29.2533,-90.6633,1.26,7.78,1111122 
LUMCON,ioos:station:LUMCON:101:1,2016-03-03T02:45:00Z,29.2533,-90.6633,1.25,7.96,1111122 
LUMCON,ioos:station:LUMCON:101:1,2016-03-03T03:00:00Z,29.2533,-90.6633,1.25,7.92,1111122 
LUMCON,ioos:station:LUMCON:101:1,2016-03-03T03:15:00Z,29.2533,-90.6633,1.24,7.83,1111122 
LUMCON,ioos:station:LUMCON:101:1,2016-03-03T03:30:00Z,29.2533,-90.6633,1.24,7.21,1111122 
LUMCON,ioos:station:LUMCON:101:1,2016-03-03T03:45:00Z,29.2533,-90.6633,1.23,7.15,1111122 
LUMCON,ioos:station:LUMCON:101:1,2016-03-03T04:00:00Z,29.2533,-90.6633,1.22,7.07,1111122 
LUMCON,ioos:station:LUMCON:101:1,2016-03-03T04:15:00Z,29.2533,-90.6633,1.21,7.0,1111122 
LUMCON,ioos:station:LUMCON:101:1,2016-03-03T04:30:00Z,29.2533,-90.6633,1.19,6.74,1111122 
LUMCON,ioos:station:LUMCON:101:1,2016-03-03T04:45:00Z,29.2533,-90.6633,1.18,6.22,1111122 
LUMCON,ioos:station:LUMCON:101:1,2016-03-03T05:00:00Z,29.2533,-90.6633,1.17,6.0,1111122 
LUMCON,ioos:station:LUMCON:101:1,2016-03-03T05:15:00Z,29.2533,-90.6633,1.16,5.86,1111122 
LUMCON,ioos:station:LUMCON:101:1,2016-03-03T05:30:00Z,29.2533,-90.6633,1.15,5.74,1111122 
LUMCON,ioos:station:LUMCON:101:1,2016-03-03T05:45:00Z,29.2533,-90.6633,1.14,5.67,1111122 
LUMCON,ioos:station:LUMCON:101:1,2016-03-03T06:00:00Z,29.2533,-90.6633,1.13,5.67,1111122 
LUMCON,ioos:station:LUMCON:101:1,2016-03-03T06:15:00Z,29.2533,-90.6633,1.12,5.59,1111122 
LUMCON,ioos:station:LUMCON:101:1,2016-03-03T06:30:00Z,29.2533,-90.6633,1.11,5.46,1111122 
LUMCON,ioos:station:LUMCON:101:1,2016-03-03T06:45:00Z,29.2533,-90.6633,1.1,5.32,1111122 
LUMCON,ioos:station:LUMCON:101:1,2016-03-03T07:00:00Z,29.2533,-90.6633,1.09,5.13,1111122 
LUMCON,ioos:station:LUMCON:101:1,2016-03-03T07:15:00Z,29.2533,-90.6633,1.08,4.98,1111122 
LUMCON,ioos:station:LUMCON:101:1,2016-03-03T07:30:00Z,29.2533,-90.6633,1.07,4.88,1111122 
LUMCON,ioos:station:LUMCON:101:1,2016-03-03T07:45:00Z,29.2533,-90.6633,1.07,4.76,1111122 
LUMCON,ioos:station:LUMCON:101:1,2016-03-03T08:00:00Z,29.2533,-90.6633,1.06,4.69,1111122 
LUMCON,ioos:station:LUMCON:101:1,2016-03-03T08:15:00Z,29.2533,-90.6633,1.04,4.61,1111122 
LUMCON,ioos:station:LUMCON:101:1,2016-03-03T08:30:00Z,29.2533,-90.6633,1.04,4.55,1111122 
LUMCON,ioos:station:LUMCON:101:1,2016-03-03T08:45:00Z,29.2533,-90.6633,1.03,4.45,1111122 
LUMCON,ioos:station:LUMCON:101:1,2016-03-03T09:00:00Z,29.2533,-90.6633,1.01,4.4,1111122 
LUMCON,ioos:station:LUMCON:101:1,2016-03-03T09:15:00Z,29.2533,-90.6633,1.01,4.37,1111122 
LUMCON,ioos:station:LUMCON:101:1,2016-03-03T09:30:00Z,29.2533,-90.6633,1.0,4.33,1111122 
LUMCON,ioos:station:LUMCON:101:1,2016-03-03T09:45:00Z,29.2533,-90.6633,0.99,4.33,1111122 
LUMCON,ioos:station:LUMCON:101:1,2016-03-03T10:00:00Z,29.2533,-90.6633,0.99,4.29,1111122 
LUMCON,ioos:station:LUMCON:101:1,2016-03-03T10:15:00Z,29.2533,-90.6633,0.98,4.3,1111122 
LUMCON,ioos:station:LUMCON:101:1,2016-03-03T10:30:00Z,29.2533,-90.6633,0.99,4.28,1111122 
LUMCON,ioos:station:LUMCON:101:1,2016-03-03T10:45:00Z,29.2533,-90.6633,0.99,4.25,1111122 
LUMCON,ioos:station:LUMCON:101:1,2016-03-03T11:00:00Z,29.2533,-90.6633,0.98,4.26,1111122 
LUMCON,ioos:station:LUMCON:101:1,2016-03-03T11:15:00Z,29.2533,-90.6633,0.98,4.26,1111122 
LUMCON,ioos:station:LUMCON:101:1,2016-03-03T11:30:00Z,29.2533,-90.6633,1.01,4.25,1111122 
LUMCON,ioos:station:LUMCON:101:1,2016-03-03T11:45:00Z,29.2533,-90.6633,1.02,4.27,1111122 
LUMCON,ioos:station:LUMCON:101:1,2016-03-03T12:00:00Z,29.2533,-90.6633,1.03,4.27,1111122 
LUMCON,ioos:station:LUMCON:101:1,2016-03-03T12:15:00Z,29.2533,-90.6633,1.04,4.88,1111122 
LUMCON,ioos:station:LUMCON:101:1,2016-03-03T12:30:00Z,29.2533,-90.6633,1.05,4.62,1111122 
LUMCON,ioos:station:LUMCON:101:1,2016-03-03T12:45:00Z,29.2533,-90.6633,1.05,5.33,1111122 
LUMCON,ioos:station:LUMCON:101:1,2016-03-03T13:00:00Z,29.2533,-90.6633,1.06,5.26,1111122 
LUMCON,ioos:station:LUMCON:101:1,2016-03-03T13:15:00Z,29.2533,-90.6633,1.06,5.22,1111122 
LUMCON,ioos:station:LUMCON:101:1,2016-03-03T13:30:00Z,29.2533,-90.6633,1.06,5.36,1111122 
LUMCON,ioos:station:LUMCON:101:1,2016-03-03T13:45:00Z,29.2533,-90.6633,1.07,5.4,1111122 
LUMCON,ioos:station:LUMCON:101:1,2016-03-03T14:00:00Z,29.2533,-90.6633,1.08,5.52,1111122 
LUMCON,ioos:station:LUMCON:101:1,2016-03-03T14:15:00Z,29.2533,-90.6633,1.1,5.67,1111122 
LUMCON,ioos:station:LUMCON:101:1,2016-03-03T14:30:00Z,29.2533,-90.6633,1.11,5.89,1111122 
LUMCON,ioos:station:LUMCON:101:1,2016-03-03T14:45:00Z,29.2533,-90.6633,1.13,6.0,1111122 
LUMCON,ioos:station:LUMCON:101:1,2016-03-03T15:00:00Z,29.2533,-90.6633,1.14,6.13,1111122 
LUMCON,ioos:station:LUMCON:101:1,2016-03-03T15:15:00Z,29.2533,-90.6633,1.16,6.2,1111122 
LUMCON,ioos:station:LUMCON:101:1,2016-03-03T15:30:00Z,29.2533,-90.6633,1.16,6.21,1111122 
LUMCON,ioos:station:LUMCON:101:1,2016-03-03T15:45:00Z,29.2533,-90.6633,1.16,6.26,1111122 
LUMCON,ioos:station:LUMCON:101:1,2016-03-03T16:00:00Z,29.2533,-90.6633,1.17,6.33,1111122 
LUMCON,ioos:station:LUMCON:101:1,2016-03-03T16:15:00Z,29.2533,-90.6633,1.18,6.39,1111122 
LUMCON,ioos:station:LUMCON:101:1,2016-03-03T16:30:00Z,29.2533,-90.6633,1.18,6.44,1111122 
LUMCON,ioos:station:LUMCON:101:1,2016-03-03T16:45:00Z,29.2533,-90.6633,1.19,6.46,1111122 
LUMCON,ioos:station:LUMCON:101:1,2016-03-03T17:00:00Z,29.2533,-90.6633,1.19,6.45,1111122 
LUMCON,ioos:station:LUMCON:101:1,2016-03-03T17:15:00Z,29.2533,-90.6633,1.2,6.54,1111122 
LUMCON,ioos:station:LUMCON:101:1,2016-03-03T17:30:00Z,29.2533,-90.6633,1.21,6.67,1111122 
LUMCON,ioos:station:LUMCON:101:1,2016-03-03T17:45:00Z,29.2533,-90.6633,1.22,6.71,1111122 
LUMCON,ioos:station:LUMCON:101:1,2016-03-03T18:00:00Z,29.2533,-90.6633,1.22,6.79,1111122 
LUMCON,ioos:station:LUMCON:101:1,2016-03-03T18:15:00Z,29.2533,-90.6633,1.22,6.87,1111122 